Location: Newark
(51.5100°N, 0.1300°W)
Time: 21:24:38
(UTC+00:00)

N. Korean satellite - Visible Passes

Search period start: 07 December 2019 00:00
Search period end: 17 December 2019 00:00
Orbit: 456 x 506 km, 97.2° (Epoch: 06 December)

Date Brightness Start Highest point End Pass type
(mag) Time Alt. Az. Time Alt. Az. Time Alt. Az.
07 Dec 10.0 04:45:39 10° ENE 04:46:57 12° E 04:48:16 10° ESE visible
07 Dec 6.4 06:17:15 10° N 06:20:50 67° WNW 06:24:19 10° SSW visible
07 Dec 6.7 16:57:14 10° SSE 17:00:57 82° WSW 17:04:40 10° NNW visible
08 Dec 7.0 05:51:49 10° NNE 05:55:23 61° E 05:58:52 10° S visible
08 Dec 6.8 16:31:56 10° SSE 16:35:33 52° ENE 16:39:10 10° N visible
08 Dec 9.9 18:06:54 10° SW 18:09:14 16° W 18:11:34 10° NW visible
09 Dec 8.5 05:26:37 10° NNE 05:29:51 31° E 05:33:01 10° SSE visible
09 Dec 7.6 07:00:13 10° N 07:03:08 24° WNW 07:06:00 10° WSW visible
09 Dec 8.9 17:40:22 10° SSW 17:43:36 28° W 17:46:50 10° NW visible
10 Dec 9.5 05:01:47 10° NE 05:04:13 17° E 05:06:37 10° SE visible
10 Dec 6.8 06:34:27 10° N 06:37:51 42° WNW 06:41:10 10° SW visible
10 Dec 7.6 17:14:26 10° S 17:18:04 52° W 17:21:41 10° NNW visible
11 Dec 6.4 06:08:53 10° NNE 06:12:28 84° WNW 06:15:57 10° SSW visible
11 Dec 6.6 16:48:54 10° SSE 16:52:35 82° ENE 16:56:18 10° NNW visible
11 Dec 10.3 18:25:47 10° W 18:26:31 10° W 18:27:14 10° WNW visible
12 Dec 7.5 05:43:31 10° NNE 05:46:59 48° E 05:50:22 10° S visible
12 Dec 9.6 17:58:08 10° SW 18:00:48 19° W 18:03:29 10° NW visible
13 Dec 8.8 05:18:24 10° NE 05:21:25 25° E 05:24:22 10° SSE visible
13 Dec 7.4 06:51:43 10° N 06:54:48 28° WNW 06:57:49 10° SW visible
13 Dec 8.5 17:31:49 10° SSW 17:35:12 33° W 17:38:34 10° NNW visible
14 Dec 9.8 04:53:48 10° NE 04:55:44 14° E 04:57:40 10° ESE visible
14 Dec 6.6 06:26:02 10° N 06:29:28 52° WNW 06:32:51 10° SSW visible
14 Dec 7.1 17:06:01 10° S 17:09:40 64° WSW 17:13:19 10° NNW visible
15 Dec 6.6 06:00:30 10° NNE 06:04:03 79° ESE 06:07:31 10° S visible
15 Dec 6.6 16:40:35 10° SSE 16:44:14 66° ENE 16:47:52 10° N visible
15 Dec 10.0 18:16:22 10° WSW 18:18:02 13° W 18:19:41 10° WNW visible
16 Dec 7.9 05:35:13 10° NNE 05:38:32 39° E 05:41:47 10° SSE visible
16 Dec 7.9 07:09:08 10° NNW 07:11:42 19° WNW 07:14:15 10° WSW visible
16 Dec 9.3 17:49:25 10° SW 17:52:21 22° W 17:55:17 10° NW visible
